Location: Unspecified
(52.1384°N, 8.6525°W)
Time: 15:06:55
(UTC+00:00)

XW-2F - Pass Details

Date: 17 January 2021
Orbit: 500 x 520 km, 97.5° (Epoch: 06 March)

Event Time Altitude Azimuth Distance (km) Brightness Sun altitude
Rises 05:52:45 0° 25° (NNE) 2,657 ? -24.1°
Reaches altitude 10° 05:55:18 10° 43° (NE) 1,765 ? -23.7°
Maximum altitude 05:58:09 20° 92° (E) 1,253 ? -23.3°
Drops below altitude 10° 06:01:00 10° 140° (SE) 1,757 ? -22.8°
Sets 06:03:32 0° 158° (SSE) 2,639 ? -22.4°
